Home > Weather > Easter Island > Past weeks

Flag for Chile Weather for the Past 2 Weeks in Easter Island, Chile

Now
66 °F

Partly cloudy.


Feels Like: 66 °F
Forecast: 66 / 75 °F
Wind: 3 mph from Southeast

Location: Isla De Pascua

Current Time: May 6, 2016 at 6:51:42 AM

Latest Report: May 6, 2016 at 6:00 AM


Visibility: N/A

Pressure: 29.95 "Hg

Humidity: 83%

Dew Point: 61 °F

Location of Easter IslandLocation

Historic Weather in Easter Island — Graph

°F

Easter Island Temperature Yesterday

Maximum temperature yesterday: 73 °F (at 3:00 PM)
Minimum temperature yesterday: 57 °F (at 6:00 AM)
Average temperature yesterday: 67 °F

High & Low Weather Summary for the Past Weeks

 TemperatureHumidityPressure
High79 °F (Apr 22, 1:00 PM)100% (May 4, 5:00 PM)30.12 "Hg (May 4, 5:00 PM)
Low57 °F (Apr 29, 8:00 AM)44% (May 2, 2:00 PM)29.68 "Hg (May 1, 1:00 AM)
Average70 °F74%29.95 "Hg
* Reported Apr 21 5:00 AM — May 6 5:00 AM, Easter Island, Weather by CustomWeather, © 2016

Note: Actual official high and low records may vary slightly from our data, if they occured in-between our weather recording intervals... More about our weather records

Advertising

Easter Island Weather History for the Previous 24 Hours

Scroll right to see more
 ConditionsComfort  
Time TempWeatherWind HumidityBarometerVisibility
5:00 AM
Fri, May 6
66 °FPartly cloudy.3 mph88%29.98 "HgN/A
4:00 AM66 °FPartly cloudy.5 mph88%29.98 "HgN/A
3:00 AM64 °FPassing clouds.5 mph88%29.98 "HgN/A
2:00 AM63 °FPassing clouds.5 mph88%30.01 "HgN/A
1:00 AM64 °FPassing clouds.5 mph83%30.04 "HgN/A
12:00 AM64 °FPassing clouds.5 mph88%30.04 "HgN/A
11:00 PM
Thu, May 5
66 °FPartly cloudy.2 mph83%30.04 "HgN/A
10:00 PM66 °FPartly cloudy.5 mph83%30.01 "HgN/A
9:00 PM66 °FPassing clouds.7 mph83%30.01 "HgN/A
8:00 PM68 °FPartly sunny.5 mph78%29.98 "HgN/A
7:00 PM70 °FBroken clouds.9 mph73%29.98 "HgN/A
6:00 PM73 °FPartly sunny.3 mph61%29.95 "HgN/A
5:00 PM73 °FPartly sunny.10 mph61%29.98 "HgN/A
4:00 PM73 °FPartly sunny.9 mph65%29.98 "HgN/A
3:00 PM73 °FScattered clouds.9 mph65%30.01 "HgN/A
2:00 PM70 °FBroken clouds.13 mph78%30.04 "HgN/A
1:00 PM72 °FBroken clouds.9 mph78%30.04 "HgN/A
12:00 PM72 °FBroken clouds.9 mph69%30.04 "HgN/A
11:00 AM70 °FScattered clouds.7 mph78%30.04 "HgN/A
10:00 AM68 °FScattered clouds.7 mph83%29.98 "HgN/A
9:00 AM59 °FPassing clouds.3 mph88%29.98 "HgN/A
8:00 AM57 °FPassing clouds.3 mph94%29.95 "HgN/A
7:00 AM59 °FPassing clouds.3 mph94%29.92 "HgN/A
6:00 AM57 °FPassing clouds.3 mph94%29.92 "HgN/A
Weather by CustomWeather, © 2016

See weather overviewHow to use our weather pages